Terug naar catalogus

FENGYUN 1C DEB

ActiefPO
NORAD 30827·DEBRIS·🇨🇳 China

Gelanceerd May 10, 1999 vanaf Taiyuan Satellite Launch Center

Loading…

Volgende Passages (komende 24 uur)

TLE

VersSource: Space-Track

Epoch: Sep 13, 2026, 23:18 UTC

1 30827U 99025AVM 26256.97124470  .00004886  00000-0  14948-2 0  9994
2 30827  99.0142 261.7027 0044728  87.3039 273.3267 14.41690477  4981

Volg FENGYUN 1C DEB in realtime met AllMySat

Download on the App Store